Flag for Spain Weather past 2 weeks in Las Palmas, Canary Islands, Spain

Now
81 °F

Passing clouds.


Feels Like: 83 °F
Forecast: 74 / 81 °F
Wind: 25 mph from Northeast

Location: Las Palmas De Gran Canaria / Gando

Current Time: Sep 5, 2015 at 1:31:36 PM

Latest Report: Sep 5, 2015 at 1:00 PM


Visibility: N/A

Pressure: 30.07 "Hg

Humidity: 62%

Dew point: 66 °F

Location of Las PalmasLocation

Historic Weather in Las Palmas — Graph

°F

Las Palmas temperature yesterday

Maximum temperature yesterday: 81 °F (at 12:30 PM)
Minimum temperature yesterday: 73 °F (at 12:30 AM)
Average temperature yesterday: 76 °F

Past Weeks' High & Low Weather Summary

 TemperatureHumidityPressure
High84 °F (Aug 31, 3:30 PM)89% (Aug 31, 4:00 AM)30.18 "Hg (Aug 31, 4:00 AM)
Low72 °F (Aug 30, 6:30 AM)48% (Aug 22, 12:00 PM)29.92 "Hg (Aug 29, 5:00 PM)
Average77 °F67%30.06 "Hg
* Reported Aug 21 12:00 Noon — Sep 5 12:30 PM, Las Palmas, Weather by CustomWeather, © 2015

Note: Actual official high and low records may vary slightly from our data, if they occured in-between our weather recording intervals... More about our weather records

Advertising

Las Palmas weather history for previous 24 hours

 ConditionsComfort  
Time TempWeatherWind HumidityBarometerVisibility
12:30 PM
Sat, Sep 5
81 °FPassing clouds.24 mph62%30.09 "HgN/A
12:00 PM79 °FPassing clouds.23 mph61%30.09 "HgN/A
11:30 AM79 °FPassing clouds.23 mph65%30.09 "HgN/A
11:00 AM79 °FPassing clouds.21 mph65%30.09 "HgN/A
10:30 AM77 °FPartly sunny.18 mph65%30.09 "HgN/A
10:00 AM77 °FScattered clouds.15 mph65%30.09 "HgN/A
9:30 AM75 °FPassing clouds.16 mph69%30.09 "HgN/A
9:00 AM73 °FPassing clouds.14 mph74%30.07 "HgN/A
8:30 AM73 °FPassing clouds.13 mph69%30.07 "HgN/A
8:00 AM73 °FPassing clouds.12 mph69%30.07 "HgN/A
7:30 AM73 °FPassing clouds.14 mph69%30.04 "HgN/A
7:00 AM73 °FPassing clouds.15 mph69%30.04 "HgN/A
6:30 AM73 °FPassing clouds.15 mph69%30.04 "HgN/A
6:00 AM73 °FPassing clouds.13 mph69%30.04 "HgN/A
5:30 AM73 °FPassing clouds.15 mph69%30.04 "HgN/A
5:00 AM73 °FPassing clouds.13 mph74%30.04 "HgN/A
4:30 AM73 °FPassing clouds.14 mph69%30.04 "HgN/A
4:00 AM73 °FPassing clouds.14 mph74%30.04 "HgN/A
3:30 AM73 °FPassing clouds.15 mph74%30.04 "HgN/A
3:00 AM73 °FPassing clouds.17 mph74%30.04 "HgN/A
2:30 AM73 °FPassing clouds.17 mph69%30.04 "HgN/A
2:00 AM73 °FPassing clouds.17 mph74%30.07 "HgN/A
1:30 AM73 °FPassing clouds.18 mph74%30.07 "HgN/A
1:00 AM73 °FPassing clouds.17 mph74%30.07 "HgN/A
12:30 AM73 °FPassing clouds.17 mph74%30.07 "HgN/A
12:00 AM73 °FPassing clouds.16 mph74%30.09 "HgN/A
11:30 PM
Fri, Sep 4
73 °FPassing clouds.17 mph74%30.09 "HgN/A
11:00 PM73 °FPassing clouds.20 mph74%30.09 "HgN/A
10:30 PM73 °FPassing clouds.21 mph74%30.07 "HgN/A
10:00 PM75 °FPassing clouds.17 mph69%30.07 "HgN/A
9:30 PM75 °FPassing clouds.18 mph65%30.07 "HgN/A
9:00 PM75 °FPassing clouds.22 mph65%30.04 "HgN/A
8:30 PM75 °FPassing clouds.24 mph65%30.04 "HgN/A
8:00 PM75 °FPassing clouds.23 mph65%30.04 "HgN/A
7:30 PM77 °FPassing clouds.25 mph65%30.04 "HgN/A
7:00 PM77 °FPassing clouds.25 mph61%30.04 "HgN/A
6:30 PM79 °FPassing clouds.26 mph61%30.04 "HgN/A
6:00 PM79 °FPassing clouds.29 mph61%30.04 "HgN/A
5:30 PM79 °FPassing clouds.30 mph61%30.04 "HgN/A
5:00 PM81 °FPassing clouds.28 mph58%30.04 "HgN/A
4:30 PM81 °FPassing clouds.28 mph58%30.04 "HgN/A
4:00 PM81 °FPassing clouds.28 mph58%30.04 "HgN/A
3:30 PM81 °FPassing clouds.24 mph54%30.07 "HgN/A
3:00 PM81 °FPassing clouds.25 mph54%30.07 "HgN/A
2:30 PM81 °FPassing clouds.26 mph54%30.07 "HgN/A
2:00 PM81 °FPassing clouds.25 mph58%30.07 "HgN/A
1:30 PM79 °FPassing clouds.24 mph61%30.09 "HgN/A
1:00 PM81 °FPassing clouds.25 mph58%30.09 "HgN/A
Weather by CustomWeather, © 2015

See weather overviewHow to use our weather pages